Other Public Products
Issued by NWS Charleston, SC

Current Version | Previous Version | Graphics & Text | Print | Product List | Glossary On
Versions: 1 2 3 4 5 6 7 8 9 10 11 12 13 14 15 16 17 18 19 20 21 22 23 24 25 26 27 28 29 30 31 32 33 34 35 36 37 38 39 40 41 42 43 44 45 46 47 48 49 50
922
FPUS82 KCHS 292327
OPUCHS

TEST...KCHS/KSAV Gateway Observations...TEST
National Weather Service Charleston SC
700 PM EDT MON MAY 29 2017

NOTE: "fair" indicates few or no clouds below 12,000 feet with no
significant weather and/or obstructions to visibility.

SCZ050-WAZ558-NCZ071-TXZ119-213-PAZ071-DCZ001-FLZ074-172-MI076-
NYZ176-178-MAZ016-IL014-TNZ027-NJZ106-GAZ044-MD014-300000-

...Gateway Observations for Charleston International...

CITY           SKY/WX    TMP DP  RH WIND       PRES   REMARKS
Chas Airport   MOSUNNY   85  70  60 S13       29.97R
Seattle        MOSUNNY   70  55  59 VRB7      29.95F
Charlotte      TSTM      67  63  87 NW14G29   30.05R FOG
Dallas DFW     MOSUNNY   87  52  29 SE6       29.98F
Dallas Love    MOSUNNY   87  51  28 NE6       29.99F
Philladelphia  CLOUDY    62  57  83 E7        30.03R
Wash National  CLOUDY    80  57  45 N7        29.95S
Baltimore      PTSUNNY   72  66  81 E10       29.97R
Miami          CLOUDY    86  73  65 SE7       30.05R HX  93
Detroit        PTSUNNY   70  57  63 NW10      29.83R
Newark         CLOUDY    59  52  77 SE6       30.07R
Laguardia      CLOUDY    57  52  83 NE9       30.06R
J F K          CLOUDY    59  56  89 E7        30.07R
Boston Logan   DRIZZLE   50  49  96 NE12      30.11R
Ft. Lauderdale CLOUDY    85  74  69 S13       30.04R HX  92
Chicago O`Hare PTSUNNY   73  43  33 W21G26    29.84R
Chicago Midway MOSUNNY   75  43  31 W21G26    29.84R
Houston Bush   CLOUDY    81  69  67 CALM      29.98F
Houston Hobby  CLOUDY    81  68  64 E7        29.97F
Nashville      CLOUDY    79  60  52 SW5       29.98S
Atlanta        PTSUNNY   75  69  81 W3        30.01F

$$

GAZ044-118-TXZ119-213-NCZ071-DCZ001-MDZ014-506-PAZ021-071-NJZ106-
NYZ176-178-MAZ106-OHZ011-021-055-MIZ076-KYZ091-ILZ014-INZ047-
MNZ060-ONZ431-300000-

...Gateway Observations for Savannah International...

CITY           SKY/WX    TMP DP  RH WIND       PRES   REMARKS
Savannah Arpt  MOSUNNY   90  73  57 S10       29.97S HX  98
Atlanta        PTSUNNY   75  69  81 W3        30.01F
Charlotte      TSTM      67  63  87 NW14G29   30.05R FOG
Dallas DFW     MOSUNNY   87  52  29 SE6       29.98F
Houston Bush   CLOUDY    81  69  67 CALM      29.98F
Wash National  CLOUDY    80  57  45 N7        29.95S
Wash Dulles    PTSUNNY   78  55  44 W5        29.96R
Baltimore      PTSUNNY   72  66  81 E10       29.97R
Philadelphia   CLOUDY    62  57  83 E7        30.03R
Newark         CLOUDY    59  52  77 SE6       30.07R
Laguardia      CLOUDY    57  52  83 NE9       30.06R
J F K          CLOUDY    59  56  89 E7        30.07R
Boston         DRIZZLE   50  49  96 NE12      30.11R
Pittsburg      CLOUDY    76  49  38 SW6       29.93S
Akron          CLOUDY    74  51  44 SW16      29.91F
Cleveland      MOSUNNY   79  52  38 SW13      29.86F
Cincinnati     PTSUNNY   79  51  37 SW7       29.92R
Columbus       MOSUNNY   78  52  40 SW9       29.90S
Detroit        PTSUNNY   70  57  63 NW10      29.83R
Chicago O`Hare PTSUNNY   73  43  33 W21G26    29.84R
Minneapolis    PTSUNNY   62  46  55 NW23G31   29.83R
Indianapolis   PTSUNNY   77  48  35 W10       29.87S
Toronto Canada PTSUNNY   66  54  63 NW16G31   29.82

$$




USA.gov is the U.S. government's official web portal to all federal, state and local government web resources and services.